Adelanto, California, United States (92301)
Lat: 34.58N, Lon: 117.41W
Wx Zone: CAZ060
Local Info
Past Weather Observations for Sunday, July 27, 2014

NOTE: This archive is for the closest National Weather Service station to Adelanto. Information may differ from the station used for current weather conditions.

Click here for Long-term Archive

Time Weather Temperature Dewpoint Humidity Pressure Winds Precip Visibility
23:55
Overcast
Light Rain
75°F / 24°C 63°F / 17°C 65% 30.12 in
(1020 mb)
SSW 4.6 mph
(SSW 7 kph)
- 10SM
23:35
Mostly Cloudy
Light Rain
75°F / 24°C 64°F / 18°C 69% 30.12 in
(1020 mb)
ENE 4.6 mph
(ENE 7 kph)
- 10SM
23:15
Overcast
Drizzle
75°F / 24°C 63°F / 17°C 65% 30.12 in
(1020 mb)
NNE 5.8 mph
(NNE 9 kph)
- 10SM
22:55
Overcast
Light Rain
73°F / 23°C 63°F / 17°C 69% 30.12 in
(1020 mb)
ENE 6.9 mph
(ENE 11 kph)
- 10SM
22:35
Overcast
Rain
75°F / 24°C 63°F / 17°C 65% 30.12 in
(1020 mb)
ENE 9.2 mph
(ENE 15 kph)
- 10SM
22:15
Mostly Cloudy
Light Rain
75°F / 24°C 63°F / 17°C 65% 30.12 in
(1020 mb)
ENE 9.2 mph
(ENE 15 kph)
- 10SM
21:55
Mostly Cloudy
Light Rain
77°F / 25°C 63°F / 17°C 61% 30.12 in
(1020 mb)
NE 10.4 mph
(NE 17 kph)
- 10SM
21:35
Mostly Cloudy
Light Rain
81°F / 27°C 63°F / 17°C 54% 30.12 in
(1020 mb)
E 9.2 mph
(E 15 kph)
- 10SM
21:15
Overcast
Light Rain
82°F / 28°C 59°F / 15°C 45% 30.09 in
(1019 mb)
S 5.8 mph
(S 9 kph)
- 10SM
20:55
Mostly Cloudy
Light Rain
82°F / 28°C 59°F / 15°C 45% 30.09 in
(1019 mb)
S 9.2 mph
(S 15 kph)
- 10SM
20:35
Clear
Light Rain
84°F / 29°C 55°F / 13°C 37% 30.09 in
(1019 mb)
SE 9.2 mph
(SE 15 kph)
- 10SM
20:15
Clear
84°F / 29°C 55°F / 13°C 37% 30.06 in
(1018 mb)
E 6.9 mph
(E 11 kph)
- 10SM
19:55
Partly Cloudy
Light Rain
84°F / 29°C 54°F / 12°C 35% 30.04 in
(1017 mb)
SW 5.8 mph
(SW 9 kph)
- 10SM
19:35
Mostly Cloudy
Rain
84°F / 29°C 57°F / 14°C 40% 30.04 in
(1017 mb)
S 10.4 mph
(S 17 kph)
- 10SM
19:15
Mostly Cloudy
88°F / 31°C 54°F / 12°C 31% 30.06 in
(1018 mb)
SE 9.2 mph
(SE 15 kph)
- 10SM
18:55
Partly Cloudy
88°F / 31°C 54°F / 12°C 31% 30.06 in
(1018 mb)
SE 11.5 mph
(SE 19 kph)
- 10SM
18:35
Partly Cloudy
88°F / 31°C 54°F / 12°C 31% 30.04 in
(1017 mb)
S 13.8 mph
(S 22 kph)
- 10SM
18:15
Partly Cloudy
88°F / 31°C 54°F / 12°C 31% 30.01 in
(1016 mb)
S 16.1 mph
(S 26 kph)
- 10SM
17:55
Partly Cloudy
90°F / 32°C 52°F / 11°C 27% 30.01 in
(1016 mb)
S 21.9 mph
(S 35 kph)
- 10SM
17:35
Partly Cloudy
90°F / 32°C 52°F / 11°C 27% 30.01 in
(1016 mb)
S 21.9 mph
(S 35 kph)
- 10SM
17:15
Partly Cloudy
90°F / 32°C 52°F / 11°C 27% 30.01 in
(1016 mb)
S 23 mph
(S 37 kph)
- 10SM
16:55
Partly Cloudy
91°F / 33°C 48°F / 9°C 23% 30.01 in
(1016 mb)
SSE 19.6 mph
(SSE 32 kph)
- 10SM
16:35
Partly Cloudy
91°F / 33°C 50°F / 10°C 24% 30.01 in
(1016 mb)
S 17.3 mph
(S 28 kph)
- 10SM
16:15
Partly Cloudy
91°F / 33°C 52°F / 11°C 26% 30.01 in
(1016 mb)
S 21.9 mph
(S 35 kph)
- 10SM
15:55
Partly Cloudy
93°F / 34°C 52°F / 11°C 24% 30.01 in
(1016 mb)
S 19.6 mph
(S 32 kph)
- 10SM
15:35
Partly Cloudy
93°F / 34°C 52°F / 11°C 24% 30.01 in
(1016 mb)
S 20.7 mph
(S 33 kph)
- 10SM
15:15
Partly Cloudy
97°F / 36°C 48°F / 9°C 19% 30.01 in
(1016 mb)
S 21.9 mph
(S 35 kph)
- 10SM
14:55
Partly Cloudy
97°F / 36°C 48°F / 9°C 19% 30.01 in
(1016 mb)
S 13.8 mph
(S 22 kph)
- 10SM
14:35
Partly Cloudy
95°F / 35°C 52°F / 11°C 23% 30.01 in
(1016 mb)
SSE 18.4 mph
(SSE 30 kph)
- 10SM
14:15
Partly Cloudy
93°F / 34°C 52°F / 11°C 24% 30.04 in
(1017 mb)
S 17.3 mph
(S 28 kph)
- 10SM
13:55
Partly Cloudy
93°F / 34°C 52°F / 11°C 24% 30.04 in
(1017 mb)
SSE 18.4 mph
(SSE 30 kph)
- 10SM
13:35
Partly Cloudy
95°F / 35°C 52°F / 11°C 23% 30.04 in
(1017 mb)
S 20.7 mph
(S 33 kph)
- 10SM
13:15
Partly Cloudy
99°F / 37°C 50°F / 10°C 19% 30.04 in
(1017 mb)
SSE 18.4 mph
(SSE 30 kph)
- 10SM
12:55
Partly Cloudy
97°F / 36°C 48°F / 9°C 19% 30.04 in
(1017 mb)
SSE 11.5 mph
(SSE 19 kph)
- 10SM
12:35
Partly Cloudy
97°F / 36°C 50°F / 10°C 20% 30.06 in
(1018 mb)
SSE 15 mph
(SSE 24 kph)
- 10SM
12:15
Partly Cloudy
97°F / 36°C 50°F / 10°C 20% 30.06 in
(1018 mb)
SSE 11.5 mph
(SSE 19 kph)
- 10SM
11:55
Partly Cloudy
97°F / 36°C 48°F / 9°C 19% 30.06 in
(1018 mb)
S 8.1 mph
(S 13 kph)
- 10SM
11:35
Partly Cloudy
97°F / 36°C 48°F / 9°C 19% 30.06 in
(1018 mb)
SW 13.8 mph
(SW 22 kph)
- 10SM
11:15
Partly Cloudy
97°F / 36°C 45°F / 7°C 17% 30.06 in
(1018 mb)
SW 11.5 mph
(SW 19 kph)
- 10SM
10:55
Partly Cloudy
97°F / 36°C 43°F / 6°C 16% 30.06 in
(1018 mb)
SW 16.1 mph
(SW 26 kph)
- 10SM
10:35
Partly Cloudy
95°F / 35°C 41°F / 5°C 15% 30.06 in
(1018 mb)
SW 4.6 mph
(SW 7 kph)
- 10SM
10:15
Partly Cloudy
93°F / 34°C 39°F / 4°C 15% 30.06 in
(1018 mb)
S 6.9 mph
(S 11 kph)
- 10SM
09:55
Partly Cloudy
91°F / 33°C 39°F / 4°C 16% 30.06 in
(1018 mb)
SSE 3.5 mph
(SSE 6 kph)
- 10SM
09:35
Partly Cloudy
90°F / 32°C 39°F / 4°C 17% 30.09 in
(1019 mb)
SSE 3.5 mph
(SSE 6 kph)
- 10SM
09:15
Partly Cloudy
90°F / 32°C 37°F / 3°C 16% 30.09 in
(1019 mb)
SSE 3.5 mph
(SSE 6 kph)
- 10SM
08:15
Partly Cloudy
86°F / 30°C 39°F / 4°C 19% 30.09 in
(1019 mb)
SSE 4.6 mph
(SSE 7 kph)
- 10SM
07:55
Partly Cloudy
84°F / 29°C 43°F / 6°C 23% 30.09 in
(1019 mb)
S 5.8 mph
(S 9 kph)
- 10SM
07:35
Partly Cloudy
82°F / 28°C 43°F / 6°C 25% 30.09 in
(1019 mb)
SSE 6.9 mph
(SSE 11 kph)
- 10SM
07:15
Partly Cloudy
82°F / 28°C 43°F / 6°C 25% 30.09 in
(1019 mb)
SSE 8.1 mph
(SSE 13 kph)
- 7SM
06:55
Partly Cloudy
81°F / 27°C 43°F / 6°C 26% 30.09 in
(1019 mb)
SSE 6.9 mph
(SSE 11 kph)
- 10SM
06:35
Partly Cloudy
79°F / 26°C 45°F / 7°C 30% 30.06 in
(1018 mb)
SSE 5.8 mph
(SSE 9 kph)
- 10SM
06:15
Partly Cloudy
79°F / 26°C 45°F / 7°C 30% 30.06 in
(1018 mb)
SSE 6.9 mph
(SSE 11 kph)
- 10SM
05:55
Clear
75°F / 24°C 45°F / 7°C 34% 30.06 in
(1018 mb)
S 5.8 mph
(S 9 kph)
- 10SM
05:35
Clear
77°F / 25°C 45°F / 7°C 32% 30.06 in
(1018 mb)
SSE 8.1 mph
(SSE 13 kph)
- 10SM
05:15
Clear
77°F / 25°C 45°F / 7°C 32% 30.04 in
(1017 mb)
SSE 6.9 mph
(SSE 11 kph)
- 10SM
04:55
Clear
77°F / 25°C 46°F / 8°C 34% 30.04 in
(1017 mb)
SSE 6.9 mph
(SSE 11 kph)
- 10SM
04:35
Clear
77°F / 25°C 45°F / 7°C 32% 30.04 in
(1017 mb)
SSE 8.1 mph
(SSE 13 kph)
- 10SM
04:15
Clear
77°F / 25°C 45°F / 7°C 32% 30.04 in
(1017 mb)
SSE 8.1 mph
(SSE 13 kph)
- 10SM
03:55
Clear
79°F / 26°C 45°F / 7°C 30% 30.04 in
(1017 mb)
SSE 8.1 mph
(SSE 13 kph)
- 10SM
03:35
Clear
79°F / 26°C 45°F / 7°C 30% 30.04 in
(1017 mb)
SSE 5.8 mph
(SSE 9 kph)
- 10SM
03:15
Clear
79°F / 26°C 45°F / 7°C 30% 30.04 in
(1017 mb)
SSE 4.6 mph
(SSE 7 kph)
- 10SM
02:55
Clear
79°F / 26°C 46°F / 8°C 32% 30.04 in
(1017 mb)
SSE 6.9 mph
(SSE 11 kph)
- 10SM
02:35
Clear
81°F / 27°C 46°F / 8°C 30% 30.04 in
(1017 mb)
SSE 5.8 mph
(SSE 9 kph)
- 10SM
02:15
Clear
79°F / 26°C 46°F / 8°C 32% 30.04 in
(1017 mb)
SE 5.8 mph
(SE 9 kph)
- 10SM
01:55
Clear
79°F / 26°C 46°F / 8°C 32% 30.04 in
(1017 mb)
SSE 5.8 mph
(SSE 9 kph)
- 10SM
01:35
Clear
79°F / 26°C 48°F / 9°C 34% 30.04 in
(1017 mb)
SE 4.6 mph
(SE 7 kph)
- 10SM
01:15
Clear
81°F / 27°C 46°F / 8°C 30% 30.04 in
(1017 mb)
SSE 8.1 mph
(SSE 13 kph)
- 10SM
00:55
Clear
81°F / 27°C 46°F / 8°C 30% 30.04 in
(1017 mb)
SSE 5.8 mph
(SSE 9 kph)
- 10SM
00:35
Clear
81°F / 27°C 48°F / 9°C 32% 30.04 in
(1017 mb)
SSE 6.9 mph
(SSE 11 kph)
- 10SM
00:15
Clear
81°F / 27°C 48°F / 9°C 32% 30.04 in
(1017 mb)
S 6.9 mph
(S 11 kph)
- 10SM
Time Weather Temperature Dewpoint Humidity Pressure Winds Precip Visibility


Weather for websites

WeatherForYou.com, LLC is not responsible for any damages or problems caused by this service. Current weather conditions are obtained from the closest station including government and personal stations which may have varying degrees of accuracy. Weather forecasts are derived from the NOAA NDFD. Like all things, this site belongs to Jesus Christ... He just trusts me to maintain it. If you have any questions or comments email webmaster@weatherforyou.com

Copyright © 2014, WeatherForYou.com LLC. All rights reserved.